Tracking 31027 objects as of 19-Jul-2025
HD Live streaming from Space Station
objects crossing your sky now

DELTA 1 DEB

Track DELTA 1 DEB now!
10-day predictions


NORAD ID: 7022
Int'l Code: 1973-086N
Perigee: 1,351.3 km
Apogee: 1,639.0 km
Inclination: 102.4 °
Period: 115.7 minutes
Semi major axis: 7866 km
RCS: 0.21 m2 (medium)
Launch date: November 6, 1973
Source: United States (US)
Launch site: AIR FORCE WESTERN TEST RANGE (AFWTR)

Note: This is SATELLITE DEBRIS
Your satellite tracking list
IRIDIUM 134
Track 1 satellite(s)




NASA's NSSDC Master Catalog

Two Line Element Set (TLE):
1 07022U 73086N   25199.47492745 -.00000085  00000-0 -25361-3 0  9998
2 07022 102.3599 267.8416 0182841 138.1318 235.3106 12.44402160347160
Source of the keplerian elements: AFSPC